sat.trackr.live / text

‹ back to catalog

STARLINK-37220

NORAD 68398 · 2026-063U

PAYLOAD ACTIVE UNKNOWN

§ Identity

Operator
Country
US
Launch date
2026-03-26
Launch site
AFWTR
Launch vehicle
Mass (kg)
RCS (m²)

Purposes: comms

External: N2YO · Heavens-Above · Gunter

§ Orbital elements

Epoch: 2026-05-24T23:18:49.146624Z

Period
93.91 min
Inclination
97.2852°
Eccentricity
0.0001353
Mean motion
15.33450348 rev/d
Perigee alt
464.6 km
Apogee alt
466.5 km
Semi-major
6,843.7 km
B*
5.8875e-4
RAAN
287.5086°
Arg perigee
79.3699°
Mean anomaly
280.7696°
Rev number
958

§ Raw data

STARLINK-372201 68398U 26063U   26144.97140216  .00018983  00000+0  58875-3 0  99922 68398  97.2852 287.5086 0001353  79.3699 280.7696 15.33450348  9586

JSON: /api/v1/satellites/68398 · /tle

For live sub-satellite position, see the globe view (requires WebGL).

§ Visibility from observer

Set your observer location to see the next 7 days of passes ≥ 10°. The values pass through the URL so the page stays shareable.

No JS? Fill the form by hand. The geolocation button needs JavaScript.